Regional Weather Roundup
Issued by NWS

Home | Current Version | Previous Version | Graphics & Text | Print | Product List | Glossary On
Versions: 1 2 3 4 5 6 7 8 9 10 11 12 13 14 15 16 17 18 19 20 21 22 23 24 25 26 27 28 29 30 31 32 33 34 35 36 37 38 39 40 41 42 43 44 45 46 47 48 49 50
362
ASUS43 KBIS 201802
RWRND

NORTH DAKOTA REGIONAL WEATHER ROUNDUP
NATIONAL WEATHER SERVICE BISMARCK ND
100 PM CDT SUN AUG 20 2017

NOTE: "FAIR" INDICATES FEW OR NO CLOUDS BELOW 12,000 FEET WITH NO
SIGNIFICANT WEATHER AND/OR OBSTRUCTIONS TO VISIBILITY.


NDZ001>003-009>011-017-201900-
NORTHWEST NORTH DAKOTA

CITY           SKY/WX    TMP DP  RH WIND       PRES   REMARKS
WILLISTON      SUNNY     72  35  25 CALM      30.08S
6HR MIN TEMP:  43; 6HR MAX TEMP:  73;

MINOT          SUNNY     73  40  30 W7        30.05S
MINOT AFB      SUNNY     71  38  29 NW6       30.03F
$$

NDZ018>021-031>035-040>046-201900-
SOUTHWEST NORTH DAKOTA

CITY           SKY/WX    TMP DP  RH WIND       PRES   REMARKS
BISMARCK       CLOUDY    68  45  43 N7        30.08S
6HR MIN TEMP:  53; 6HR MAX TEMP:  70;

DICKINSON      PTSUNNY   66  42  41 SE6       30.09F
GARRISON         N/A     67  48  50 S7        30.06F
6HR MIN TEMP:  48; 6HR MAX TEMP:  70;

HETTINGER ARPT CLOUDY    63  45  51 E6        30.10R
$$

NDZ004>008-012>016-024-026-027-054-201900-
NORTHEAST NORTH DAKOTA

CITY           SKY/WX    TMP DP  RH WIND       PRES   REMARKS
GRAND FORKS    MOSUNNY   76  46  34 NW12      29.97F
GRND FRKS AFB  MOSUNNY   76  44  31 NW10      29.98F
DEVILS LAKE    PTSUNNY   69  44  40 NW10      30.03F
$$

NDZ022-023-025-028>030-036>039-047>053-201900-
SOUTHEAST NORTH DAKOTA

CITY           SKY/WX    TMP DP  RH WIND       PRES   REMARKS
FARGO          CLOUDY    73  53  49 N13       29.97F
6HR MIN TEMP:  60; 6HR MAX TEMP:  74;

JAMESTOWN      CLOUDY    68  49  50 NW9       30.03S
$$





USA.gov is the U.S. government's official web portal to all federal, state and local government web resources and services.